Regional Weather Roundup
Issued by NWS

Home | Current Version | Previous Version | Graphics & Text | Print | Product List | Glossary On
Versions: 1 2 3 4 5 6 7 8 9 10 11 12 13 14 15 16 17 18 19 20 21 22 23 24 25 26 27 28 29 30 31 32 33 34 35 36 37 38 39 40 41 42 43 44 45 46 47 48 49 50
000
ASUS43 KIND 160259
RWRIN

WEATHER ROUNDUP FOR INDIANA
NATIONAL WEATHER SERVICE INDIANAPOLIS IN
1100 PM EDT MON SEP 15 2014

NOTE: "FAIR" INDICATES FEW OR NO CLOUDS BELOW 12,000 FEET WITH NO
SIGNIFICANT WEATHER AND/OR OBSTRUCTIONS TO VISIBILITY.

* - STATION DOES NOT REPORT WEATHER SUCH AS PRECIPITATION OR FOG.

+ - STATION NOT QUALITY CONTROLLED BY THE NATIONAL WEATHER SERVICE.
    USE DATA WITH CAUTION...ESPECIALLY DEWPOINT AND RELATIVE
    HUMIDITY OBSERVATIONS.

INZ001>003-010>013-019-020-160400-
NORTHWEST INDIANA

CITY           SKY/WX    TMP DP  RH WIND       PRES   REMARKS
GARY /AIRPORT/ CLOUDY    59  54  82 N9        30.14R
VALPARAISO     CLOUDY    55  53  93 W5        30.14R FOG

$$

LMZ046-743>745-160400-
SOUTHERN LAKE MICHIGAN

STATION/POSITION TIME  TEMP WIND        PRES
                       AIR  DIR/SP/G
                 (UTC) (F)  (DEG/KT/KT) (MB)
MICHIGAN CITY    0200   60  350/ 17/ 19   N/A

$$

INZ004-005-014>016-021>024-160400-
NORTH CENTRAL INDIANA

CITY           SKY/WX    TMP DP  RH WIND       PRES   REMARKS
GOSHEN         PTCLDY    54  52  93 S5        30.11S FOG
SOUTH BEND     CLOUDY    55  53  93 W7        30.13R FOG

$$

INZ006>009-017-018-025>027-160400-
NORTHEAST INDIANA

CITY           SKY/WX    TMP DP  RH WIND       PRES   REMARKS
ANGOLA *+      CLOUDY    54  43  66 SW3       30.10F
FORT WAYNE     CLOUDY    54  53  97 CALM      30.13S

$$

INZ028-029-035-036-043>045-051>053-160400-
WEST CENTRAL INDIANA

CITY           SKY/WX    TMP DP  RH WIND       PRES   REMARKS
GREENCASTLE +  CLOUDY    55  55 100 CALM      30.12R FOG
LAFAYETTE      CLOUDY    56  55  97 N3        30.13R FOG
TERRE HAUTE    CLOUDY    57  56  96 CALM      30.11S FOG

$$

INZ030>032-037>040-046>048-054>057-064-065-160400-
CENTRAL INDIANA

CITY           SKY/WX    TMP DP  RH WIND       PRES   REMARKS
INDIANAPOLIS   DRIZZLE   57  55  93 N7        30.11S FOG
-EAGLE CREEK   CLOUDY    56  54  93 N6        30.12R FOG
KOKOMO *+      CLOUDY    55  54  94 CALM      30.13S
MT COMFORT *+  CLOUDY    55 N/A N/A N5        30.13R
SHELBYVILLE    LGT RAIN  59  56  89 NE5       30.11S FOG

$$

INZ033-034-041-042-049-050-058-059-160400-
EAST CENTRAL INDIANA

CITY           SKY/WX    TMP DP  RH WIND       PRES   REMARKS
MUNCIE         LGT RAIN  56  54  93 W3        30.13R FOG

$$

INZ060-061-067>069-081>083-085>088-160400-
SOUTHWEST INDIANA

CITY           SKY/WX    TMP DP  RH WIND       PRES   REMARKS
EVANSVILLE     CLOUDY    70  61  73 SW7       30.07R

$$

INZ062-063-066-070>080-084-089>092-160400-
SOUTH CENTRAL AND SOUTHEAST INDIANA

CITY           SKY/WX    TMP DP  RH WIND       PRES   REMARKS
BLOOMINGTON    LGT RAIN  58  57  97 CALM      30.10R

$$



USA.gov is the U.S. government's official web portal to all federal, state and local government web resources and services.